Location: Hac?musa Deresi
(39.1694°N, 32.2508°E)
Time: 22:45:58
(UTC+00:00)

Gbstr 26 Del rocket - Pass Details

Date: 22 April 2026
Orbit: 490 x 1216 km, 51.8° (Epoch: 9 May)

Event Time Altitude Azimuth Distance (km) Brightness Sun altitude
Rises 18:13:09 0° 220° (SW) 3,478 7.0 -18.0°
Reaches altitude 10° 18:15:56 10° 217° (SW) 2,416 6.1 -18.4°
Maximum altitude 18:21:23 61° 138° (SE) 802 3.3 -19.3°
Enters shadow 18:24:22 21° 64° (ENE) 1,435 4.7 -19.8°
